Weather History for Gustavus, AK

Change the Weather History Date:

Tuesday, January 29, 2013

  Actual Average Record
Temperature  
Mean Temperature 16 °F -  
Max Temperature 23 °F 30 °F 42 °F (1971)
Min Temperature 10 °F 18 °F -11 °F (1966)
Degree Days  
Heating Degree Days 48    
Moisture  
Dew Point 11 °F    
Average Humidity 79    
Maximum Humidity 86    
Minimum Humidity 67    
Precipitation  
Precipitation 0.00 in - - ()
Sea Level Pressure  
Sea Level Pressure 30.00 in    
Wind  
Wind Speed 4 mph (NNW)    
Max Wind Speed 8 mph    
Max Gust Speed -    
Visibility 2 miles    
Events      
Averages and records for this station are not official NWS values.
T = Trace of Precipitation, MM = Missing Value Source: NWS Daily Summary

Daily Weather History Graph

Daily Weather History Graph

Search for Another Location

Airport:

Trip Planner

Search our weather history database for the weather conditions in past years. The results will help you decide how hot, cold, wet, or windy it might be!

Date:

Astronomy

Jan. 29, 2013 Rise Set
Actual Time 8:13 AM AKST 4:19 PM AKST
Civil Twilight 7:28 AM AKST 5:04 PM AKST
Nautical Twilight 6:39 AM AKST 5:53 PM AKST
Astronomical Twilight 5:53 AM AKST 6:39 PM AKST
Moon 8:19 PM AKST (1/29) 8:25 AM AKST (1/29)
Length of Visible Light 9h 35m
Length of Day
8h 05m
Waning Gibbous, 93% of the Moon is Illuminated
Jan 29
Waning Gibbous
Feb 3
Last Quarter
Feb 9
New
Feb 17
First Quarter
Feb 25
Full

Hourly Weather History & Observations

Time (AKST) Temp. Windchill Dew Point Humidity Pressure Visibility Wind Dir Wind Speed Gust Speed Precip Events Conditions
12:16 AM 10.4 °F 2.2 °F 1.4 °F 67% 30.19 in 10.0 mi NNW 4.6 mph - N/A   Overcast
12:36 AM 10.4 °F 4.0 °F 3.2 °F 73% 30.19 in 2.5 mi NNW 3.5 mph - N/A   Overcast
12:56 AM 10.4 °F - 3.2 °F 73% 30.17 in 1.5 mi Calm Calm - N/A   Overcast
1:16 AM 10.4 °F - 3.2 °F 73% 30.18 in 3.0 mi Calm Calm - N/A   Overcast
1:36 AM 10.4 °F - 3.2 °F 73% 30.15 in 1.2 mi Calm Calm - N/A   Overcast
1:56 AM 10.4 °F - 5.0 °F 79% 30.14 in 1.2 mi Calm Calm - N/A   Overcast
2:16 AM 10.4 °F 4.0 °F 5.0 °F 79% 30.12 in 1.8 mi North 3.5 mph - N/A   Overcast
2:36 AM 10.4 °F 0.8 °F 3.2 °F 73% 30.10 in 1.8 mi North 5.8 mph - N/A   Overcast
2:56 AM 10.4 °F 0.8 °F 5.0 °F 79% 30.10 in 1.5 mi North 5.8 mph - N/A   Overcast
3:16 AM 10.4 °F 0.8 °F 5.0 °F 79% 30.09 in 1.0 mi North 5.8 mph - N/A   Overcast
3:36 AM 10.4 °F 2.2 °F 5.0 °F 79% 30.08 in 0.8 mi North 4.6 mph - N/A   Overcast
3:56 AM 10.4 °F 0.8 °F 5.0 °F 79% 30.07 in 0.8 mi North 5.8 mph - N/A   Overcast
4:16 AM 10.4 °F 2.2 °F 6.8 °F 85% 30.05 in 0.5 mi NNE 4.6 mph - N/A   Overcast
4:36 AM 12.2 °F 6.1 °F 5.0 °F 73% 30.04 in 0.5 mi North 3.5 mph - N/A   Overcast
4:56 AM 12.2 °F - 6.8 °F 79% 30.03 in 1.0 mi Calm Calm - N/A   Overcast
5:16 AM 12.2 °F 6.1 °F 6.8 °F 79% 30.01 in 0.8 mi North 3.5 mph - N/A   Overcast
5:36 AM 12.2 °F 4.3 °F 6.8 °F 79% 30.00 in 1.2 mi North 4.6 mph - N/A   Overcast
5:56 AM 12.2 °F 2.9 °F 6.8 °F 79% 29.99 in 1.5 mi NNW 5.8 mph - N/A   Overcast
6:16 AM 12.2 °F 1.7 °F 6.8 °F 79% 29.98 in 1.2 mi NNW 6.9 mph - N/A   Overcast
6:36 AM 12.2 °F 1.7 °F 6.8 °F 79% 29.97 in 1.0 mi NNW 6.9 mph - N/A   Overcast
6:56 AM 12.2 °F 2.9 °F 6.8 °F 79% 29.95 in 1.0 mi NNW 5.8 mph - N/A   Overcast
7:16 AM 12.2 °F 1.7 °F 6.8 °F 79% 29.94 in 0.8 mi NNW 6.9 mph - N/A   Overcast
7:36 AM 14.0 °F 2.9 °F 6.8 °F 73% 29.94 in 0.8 mi NNW 8.1 mph - N/A   Overcast
7:56 AM 14.0 °F 3.9 °F 6.8 °F 73% 29.94 in 0.8 mi North 6.9 mph - N/A   Overcast
8:16 AM 14.0 °F 5.1 °F 8.6 °F 79% 29.93 in 0.5 mi North 5.8 mph - N/A   Overcast
8:36 AM 14.0 °F 6.5 °F 8.6 °F 79% 29.92 in 0.5 mi North 4.6 mph - N/A   Overcast
8:56 AM 14.0 °F 5.1 °F 8.6 °F 79% 29.92 in 0.5 mi North 5.8 mph - N/A   Overcast
9:16 AM 15.8 °F 8.6 °F 8.6 °F 73% 29.91 in 0.5 mi North 4.6 mph - N/A   Overcast
9:36 AM 15.8 °F 7.2 °F 8.6 °F 73% 29.91 in 0.5 mi North 5.8 mph - N/A   Overcast
9:56 AM 15.8 °F 7.2 °F 10.4 °F 79% 29.90 in 1.0 mi North 5.8 mph - N/A   Overcast
10:16 AM 15.8 °F 7.2 °F 10.4 °F 79% 29.90 in 0.5 mi NNW 5.8 mph - N/A   Overcast
10:36 AM 15.8 °F 7.2 °F 10.4 °F 79% 29.90 in 1.0 mi North 5.8 mph - N/A   Overcast
10:56 AM 15.8 °F 7.2 °F 10.4 °F 79% 29.90 in 0.8 mi North 5.8 mph - N/A   Overcast
11:16 AM 17.6 °F 9.3 °F 10.4 °F 73% 29.90 in 0.8 mi North 5.8 mph - N/A   Overcast
11:36 AM 17.6 °F 8.2 °F 10.4 °F 73% 29.90 in 1.0 mi NNW 6.9 mph - N/A   Overcast
11:56 AM 17.6 °F 8.2 °F 10.4 °F 73% 29.90 in 0.8 mi NNW 6.9 mph - N/A   Overcast
12:16 PM 17.6 °F 9.3 °F 12.2 °F 79% 29.90 in 1.0 mi NNW 5.8 mph - N/A   Overcast
12:36 PM 17.6 °F 9.3 °F 12.2 °F 79% 29.90 in 0.8 mi North 5.8 mph - N/A   Overcast
12:56 PM 17.6 °F 9.3 °F 12.2 °F 79% 29.90 in 1.0 mi North 5.8 mph - N/A   Overcast
1:16 PM 17.6 °F 10.7 °F 12.2 °F 79% 29.91 in 1.2 mi North 4.6 mph - N/A   Overcast
1:36 PM 19.4 °F 11.5 °F 12.2 °F 74% 29.91 in 0.8 mi North 5.8 mph - N/A   Overcast
1:56 PM 19.4 °F 12.8 °F 14.0 °F 80% 29.92 in 0.8 mi NNW 4.6 mph - N/A   Overcast
2:16 PM 19.4 °F 12.8 °F 14.0 °F 80% 29.92 in 1.0 mi North 4.6 mph - N/A   Overcast
2:36 PM 19.4 °F 14.3 °F 14.0 °F 80% 29.92 in 1.0 mi North 3.5 mph - N/A   Overcast
2:56 PM 19.4 °F 12.8 °F 14.0 °F 80% 29.93 in 2.0 mi North 4.6 mph - N/A   Overcast
3:16 PM 19.4 °F 12.8 °F 14.0 °F 80% 29.94 in 3.0 mi North 4.6 mph - N/A   Overcast
3:36 PM 19.4 °F 11.5 °F 14.0 °F 80% 29.94 in 3.0 mi North 5.8 mph - N/A   Overcast
3:56 PM 19.4 °F 12.8 °F 14.0 °F 80% 29.95 in 2.0 mi North 4.6 mph - N/A   Overcast
4:16 PM 19.4 °F 12.8 °F 15.8 °F 86% 29.95 in 2.5 mi NNW 4.6 mph - N/A   Overcast
4:36 PM 19.4 °F 12.8 °F 14.0 °F 80% 29.96 in 1.8 mi NNW 4.6 mph - N/A   Overcast
4:56 PM 19.4 °F 9.5 °F 15.8 °F 86% 29.97 in 1.8 mi NNW 8.1 mph - N/A   Overcast
5:16 PM 21.2 °F 12.6 °F 15.8 °F 80% 29.97 in 3.0 mi NNW 6.9 mph - N/A   Overcast
5:36 PM 19.4 °F 12.8 °F 15.8 °F 86% 29.98 in 4.0 mi NNW 4.6 mph - N/A   Overcast
5:56 PM 19.4 °F 11.5 °F 15.8 °F 86% 29.98 in 4.0 mi NNW 5.8 mph - N/A   Overcast
6:16 PM 21.2 °F 12.6 °F 15.8 °F 80% 29.99 in 3.0 mi NNW 6.9 mph - N/A   Overcast
6:36 PM 21.2 °F 13.6 °F 15.8 °F 80% 30.00 in 3.0 mi NNW 5.8 mph - N/A   Overcast
6:56 PM 21.2 °F 14.9 °F 15.8 °F 80% 29.99 in 2.0 mi NNW 4.6 mph - N/A   Overcast
7:16 PM 21.2 °F 14.9 °F 15.8 °F 80% 30.00 in 2.5 mi NNW 4.6 mph - N/A   Overcast
7:36 PM 21.2 °F 13.6 °F 15.8 °F 80% 30.01 in 3.0 mi NNW 5.8 mph - N/A   Overcast
7:56 PM 21.2 °F 14.9 °F 15.8 °F 80% 30.02 in 6.0 mi NNW 4.6 mph - N/A   Overcast
8:16 PM 21.2 °F 16.4 °F 15.8 °F 80% 30.02 in 5.0 mi NNW 3.5 mph - N/A   Overcast
8:36 PM 21.2 °F 16.4 °F 15.8 °F 80% 30.03 in 2.5 mi NW 3.5 mph - N/A   Overcast
8:56 PM 21.2 °F 16.4 °F 15.8 °F 80% 30.04 in 3.0 mi NW 3.5 mph - N/A   Overcast
9:16 PM 21.2 °F 14.9 °F 15.8 °F 80% 30.05 in 10.0 mi NNW 4.6 mph - N/A   Overcast
9:36 PM 21.2 °F 16.4 °F 15.8 °F 80% 30.05 in 10.0 mi NNW 3.5 mph - N/A   Overcast
9:56 PM 21.2 °F 16.4 °F 15.8 °F 80% 30.06 in 10.0 mi NNW 3.5 mph - N/A   Overcast
10:16 PM 21.2 °F 14.9 °F 17.6 °F 86% 30.06 in 5.0 mi NNW 4.6 mph - N/A   Overcast
10:36 PM 21.2 °F 13.6 °F 17.6 °F 86% 30.08 in 5.0 mi NNW 5.8 mph - N/A   Overcast
10:56 PM 21.2 °F 14.9 °F 17.6 °F 86% 30.08 in 3.0 mi NNW 4.6 mph - N/A   Overcast
11:16 PM 23.0 °F 17.0 °F 17.6 °F 80% 30.09 in 3.0 mi NNW 4.6 mph - N/A   Overcast
11:36 PM 23.0 °F 17.0 °F 17.6 °F 80% 30.10 in 3.0 mi NNW 4.6 mph - N/A   Overcast
11:56 PM 23.0 °F 18.4 °F 19.4 °F 86% 30.10 in 3.0 mi NNW 3.5 mph - N/A   Overcast